COSMOS 1741

Satellite information

Favourite Embed

Satellite Type and Status

PAYLOADIN ORBIT

Key statistics

Satellite COSMOS 1741 at a glance.

Uptime

14430

Days in orbit

Revolutions

≈ 14.3

Per day

Orbit

LEO

Low Earth Orbit

Inclination

74.0

Latest

Satellite identification and parameters

Extended collection of information and parameters for COSMOS 1741.

Object identification

Identified? True

Debris? False

Object name: COSMOS 1741

International designator: 1986-030A

Object number (NORAD): 16681

Object ID (CCSDS): 16681

Country: COMMONWEALTH OF INDEPENDENT STATES (CIS)

Current information (Y/N): Y

RCS size: LARGE

Orbital parameters

Period: 100.43 minutes

Inclination: 74.0213 deg

SMA: 7157.096 km

Apoapsis: 791.739 km

Periapsis: 766.183 km

RAAN: 131.1594 deg

Eccentricy: 0.00178532

Argument of periapsis: 113.0628 deg

Mean anomaly: 247.2408 deg

Mean motion: 14.33829435 rev/day

Mean motion (dot): 0.00000216 rev/day2

B* drag term: 0.000086832328 1/REarth

Two-line elements (TLE)

Creation date: Oct. 18, 2025, 2:17 a.m.

Reference frame: TEME

Reference center: EARTH

Epoch: Oct. 17, 2025, 11:23 p.m. UTC

TLE line 0: 0 COSMOS 1741

TLE line 1: 1 16681U 86030A 25290.97436327 .00000216 00000-0 86832-4 0 9998

TLE line 2: 2 16681 74.0213 131.1594 0017853 113.0628 247.2408 14.33829435 64492

Live tracking on map

Real-time ground track for satellite COSMOS 1741.

In-orbit conjunctions

A list of the most updated potential collisions computed for object COSMOS 1741.

Target Orbit TCA Probability of collision Miss distance Type
NOAA 16 DEB SSO 2025-10-04 10:55:59 0.0005669632 232.0 (m) DEBRIS
NOAA 16 DEB SSO 2025-09-01 01:42:52 0.0001281114 321.0 (m) DEBRIS
FENGYUN 1C DEB SSO 2025-06-08 23:55:55 0.0001430621 122.0 (m) DEBRIS
CZ-6A DEB LEO 2025-03-27 17:56:43 0.0003752113 693.0 (m) DEBRIS
CZ-6A DEB LEO 2025-01-02 16:19:14 0.0002337174 407.0 (m) DEBRIS

Associated space launch

Military communications satellite

COSMOS 1741 was lifted into orbit during the mission ‘Kosmos-3M | Strela-2M 38’, on board a Kosmos-3M space rocket.

The launch took place on April 17, 1986, 9:02 p.m. from 132/1 (132L).

For more information about the launch, click the button.

Launch to space Kosmos-3M | Strela-2M 38
Kosmos-3M | Strela-2M 38

Agency: N/A

Status: Launch Successful

Launch date: April 17, 1986, 9:02 p.m. UTC

Rocket: Kosmos-3M

Launch pad: 132/1 (132L)

Location: Plesetsk Cosmodrome, Russian Federation

...

Latest news about this satellite

There are no fresh news available about this satellite. Check back as we update our databases every day.


Newsletter sign-up

Weekly statistics, charts and insights to help you stay on top of the space industry.